Regional Weather Roundup
Issued by NWS Albany, NY

Home | Current Version | Previous Version | Text Only | Print | Product List | Glossary On
Versions: 1 2 3 4 5 6 7 8 9 10 11 12 13 14 15 16 17 18 19 20 21 22 23 24 25 26 27 28
000
ASUS41 KALY 281510
RWRALY

NEW YORK STATE HOURLY WEATHER ROUNDUP
NATIONAL WEATHER SERVICE ALBANY NY
1100 AM EDT SUN MAY 28 2017

NOTE: "FAIR" INDICATES FEW OR NO CLOUDS BELOW 12,000 FEET WITH NO
SIGNIFICANT WEATHER AND/OR NO OBSTRUCTIONS TO VISIBILITY.

NYZ032-033-038>043-046>054-057>066-NYZ062>081-082-084-281600-
EAST


CITY           SKY/WX    TMP DP  RH WIND       PRES   REMARKS
ALBANY         CLOUDY    69  56  62 E5        29.91F
GLENS FALLS    NOT AVBL
POUGHKEEPSIE   CLOUDY    69  57  65 VRB5      29.90F
NEWBURGH       MOSUNNY   70  61  73 SE7       29.93F
MONTGOMERY     PTSUNNY   71  57  61 CALM      29.91F
WHITE PLAINS   CLOUDY    68  58  70 SE12      29.93F
ISLIP          PTSUNNY   66  57  72 S12       29.96R
NEW YORK CITY  CLOUDY    69  57  65 VRB6      29.93R
CENTRAL PARK   MOSUNNY   67  58  72 VRB5      29.96S
$$

NYZ005>009-017-018-044>046-055-056-281600-
CENTRAL


CITY           SKY/WX    TMP DP  RH WIND       PRES   REMARKS
FULTON         CLOUDY    67  56  67 E7        29.86F
SYRACUSE       CLOUDY    67  59  75 E9        29.86F
ROME           MOSUNNY   70  56  61 SE6       29.90S
ELMIRA         MOSUNNY   72  58  61 SE12      29.84F
BINGHAMTON     MOSUNNY   66  56  70 S7        29.89S
MONTICELLO     CLOUDY    68  55  64 SE5       29.93S
$$

NYZ026>034-041>043-087-281600-
NORTH


CITY           SKY/WX    TMP DP  RH WIND       PRES   REMARKS
WATERTOWN      CLOUDY    70  55  59 VRB3      29.87S
FORT DRUM      NOT AVBL
OGDENSBURG     FAIR      73  54  51 CALM      29.89R
MASSENA        CLOUDY    71  53  52 VRB3      29.89S
SARANAC LAKE   CLOUDY    67  49  52 S7        29.90S
PLATTSBURGH    MOSUNNY   68  52  56 SE8       29.89F
$$

NYZ001>004-010>016-019>021-085-281600-
WEST


CITY           SKY/WX    TMP DP  RH WIND       PRES   REMARKS
NIAGARA FALLS  MOSUNNY   71  55  56 E7        29.82F
BUFFALO        PTSUNNY   69  57  65 NE7       29.82F
DUNKIRK        MOSUNNY   67  58  72 N8        29.82R
JAMESTOWN      SUNNY     68  57  68 S6        29.83R
WELLSVILLE     MOSUNNY   67  56  67 S12       29.87F
ROCHESTER      CLOUDY    69  57  65 SE5       29.83F
PENN YAN       CLOUDY    70  58  65 CALM      29.85F
$$

             KEY
       WCI = WIND CHILL INDEX
       VSB = VISIBILITY
       HX  = HEAT INDEX
$$




USA.gov is the U.S. government's official web portal to all federal, state and local government web resources and services.